When you browse on this site, cookies collect data to enhance your experience and personalize the content and advertising you see.
Visit our Privacy Policy to learn more. By continuing to use the site, you agree to this use of cookies and data.
  • In Hungary
  • List of Countries
  • For 7 days
  • Water Temperature
  • Satellite Maps
  • Weather Map
  • News
  • Weather Widgets
  • user-avatar
    Login

    Hourly Weather San Sebastian

    Today, 19 March, Tuesday

    Time Temperature Precipitation Wind Pressure Humidity
    00:00 +4°C° 0.6 mm 4 mps 739 mmHg 83%
    01:00 +4°C° 0.4 mm 3 mps 739 mmHg 83%
    02:00 +3°C° 0.4 mm 3 mps 739 mmHg 82%
    03:00 +4°C° 0.4 mm 2 mps 738 mmHg 82%
    04:00 +4°C° 0.6 mm 2 mps 738 mmHg 83%
    05:00 +4°C° 0.6 mm 2 mps 739 mmHg 84%
    06:00 +4°C° 0.6 mm 2 mps 739 mmHg 85%
    07:00 +4°C° 0.4 mm 2 mps 739 mmHg 85%
    08:00 +5°C° 0.4 mm 2 mps 739 mmHg 85%
    09:00 +4°C° 0.4 mm 3 mps 739 mmHg 85%
    10:00 +5°C° 0.3 mm 3 mps 739 mmHg 83%
    11:00 +7°C° 0.3 mm 3 mps 739 mmHg 81%
    12:00 +7°C° 0.3 mm 3 mps 739 mmHg 79%
    13:00 +8°C° 0.4 mm 3 mps 739 mmHg 76%
    14:00 +8°C° 0.4 mm 3 mps 739 mmHg 73%
    15:00 +9°C° 0.4 mm 3 mps 739 mmHg 71%
    16:00 +8°C° 0.2 mm 3 mps 739 mmHg 74%
    17:00 +8°C° 0.2 mm 3 mps 739 mmHg 77%
    18:00 +7°C° 0.2 mm 3 mps 740 mmHg 80%
    19:00 +7°C° 0.1 mm 3 mps 740 mmHg 80%
    20:00 +5°C° 0.1 mm 3 mps 741 mmHg 80%
    21:00 +5°C° 0.1 mm 3 mps 742 mmHg 81%
    22:00 +5°C° 0 mm 3 mps 742 mmHg 82%
    23:00 +4°C° 0 mm 3 mps 742 mmHg 83%

    Tomorrow, 20 March, Wednesday

    Time Temperature Precipitation Wind Pressure Humidity
    00:00 +4°C° 0 mm 3 mps 742 mmHg 83%
    01:00 +3°C° 0 mm 3 mps 742 mmHg 85%
    02:00 +4°C° 0 mm 2 mps 742 mmHg 86%
    03:00 +3°C° 0 mm 2 mps 742 mmHg 87%
    04:00 +3°C° 0 mm 2 mps 742 mmHg 86%
    05:00 +2°C° 0 mm 2 mps 742 mmHg 86%
    06:00 +2°C° 0 mm 2 mps 742 mmHg 86%
    07:00 +4°C° 0 mm 2 mps 743 mmHg 79%
    08:00 +5°C° 0 mm 3 mps 743 mmHg 72%
    09:00 +7°C° 0 mm 3 mps 743 mmHg 65%
    10:00 +9°C° 0 mm 3 mps 743 mmHg 60%
    11:00 +10°C° 0 mm 3 mps 743 mmHg 55%
    12:00 +11°C° 0 mm 3 mps 742 mmHg 49%
    13:00 +11°C° 0 mm 3 mps 742 mmHg 48%
    14:00 +12°C° 0 mm 3 mps 742 mmHg 47%
    15:00 +12°C° 0 mm 3 mps 741 mmHg 46%
    16:00 +10°C° 0 mm 2 mps 741 mmHg 52%
    17:00 +9°C° 0 mm 2 mps 742 mmHg 58%
    18:00 +7°C° 0 mm 2 mps 742 mmHg 64%
    19:00 +6°C° 0 mm 2 mps 742 mmHg 67%
    20:00 +6°C° 0 mm 2 mps 743 mmHg 69%
    21:00 +4°C° 0 mm 3 mps 743 mmHg 72%
    22:00 +4°C° 0 mm 2 mps 743 mmHg 69%
    23:00 +4°C° 0 mm 2 mps 743 mmHg 67%

    Day after tomorrow, 21 March, Thursday

    Time Temperature Precipitation Wind Pressure Humidity
    00:00 +3°C° 0 mm 2 mps 743 mmHg 64%
    01:00 +3°C° 0 mm 2 mps 743 mmHg 62%
    02:00 +4°C° 0 mm 1 mps 743 mmHg 61%
    03:00 +4°C° 0 mm 1 mps 742 mmHg 59%
    04:00 +3°C° 0 mm 1 mps 742 mmHg 59%
    05:00 +3°C° 0 mm 1 mps 742 mmHg 59%
    06:00 +3°C° 0 mm 1 mps 743 mmHg 60%
    07:00 +5°C° 0 mm 1 mps 743 mmHg 55%
    08:00 +7°C° 0 mm 0 mps 743 mmHg 51%
    09:00 +10°C° 0 mm 0 mps 743 mmHg 46%
    10:00 +12°C° 0 mm 1 mps 743 mmHg 46%
    11:00 +13°C° 0 mm 1 mps 743 mmHg 45%
    12:00 +14°C° 0 mm 2 mps 742 mmHg 44%
    13:00 +15°C° 0 mm 2 mps 742 mmHg 44%
    14:00 +15°C° 0 mm 2 mps 742 mmHg 44%
    15:00 +15°C° 0 mm 2 mps 741 mmHg 44%
    16:00 +13°C° 0 mm 1 mps 741 mmHg 51%
    17:00 +12°C° 0 mm 1 mps 741 mmHg 58%
    18:00 +9°C° 0 mm 0 mps 741 mmHg 65%
    19:00 +8°C° 0 mm 0 mps 742 mmHg 67%
    20:00 +8°C° 0 mm 1 mps 742 mmHg 69%
    21:00 +7°C° 0 mm 1 mps 742 mmHg 72%
    22:00 +7°C° 0 mm 1 mps 742 mmHg 72%
    23:00 +7°C° 0 mm 1 mps 742 mmHg 73%

    22 March, Friday

    Time Temperature Precipitation Wind Pressure Humidity
    00:00 +5°C° 0 mm 0 mps 742 mmHg 74%
    01:00 +5°C° 0 mm 0 mps 742 mmHg 74%
    02:00 +5°C° 0 mm 0 mps 742 mmHg 74%
    03:00 +5°C° 0 mm 0 mps 742 mmHg 73%
    04:00 +4°C° 0 mm 0 mps 742 mmHg 73%
    05:00 +4°C° 0 mm 0 mps 742 mmHg 72%
    06:00 +4°C° 0 mm 0 mps 742 mmHg 72%
    07:00 +7°C° 0 mm 0 mps 742 mmHg 65%
    08:00 +10°C° 0 mm 1 mps 742 mmHg 59%
    09:00 +13°C° 0 mm 1 mps 742 mmHg 52%
    10:00 +14°C° 0 mm 1 mps 742 mmHg 49%
    11:00 +16°C° 0 mm 1 mps 742 mmHg 46%
    12:00 +17°C° 0 mm 2 mps 742 mmHg 43%
    13:00 +18°C° 0 mm 2 mps 741 mmHg 42%
    14:00 +18°C° 0 mm 2 mps 741 mmHg 41%
    15:00 +19°C° 0 mm 2 mps 741 mmHg 41%
    16:00 +18°C° 0 mm 1 mps 741 mmHg 48%
    17:00 +15°C° 0 mm 1 mps 741 mmHg 55%
    18:00 +12°C° 0 mm 0 mps 741 mmHg 62%
    19:00 +11°C° 0 mm 0 mps 741 mmHg 64%
    20:00 +11°C° 0 mm 1 mps 741 mmHg 66%
    21:00 +10°C° 0 mm 1 mps 742 mmHg 68%
    22:00 +10°C° 0 mm 1 mps 742 mmHg 69%
    23:00 +9°C° 0 mm 1 mps 741 mmHg 69%

    23 March, Saturday

    Time Temperature Precipitation Wind Pressure Humidity
    00:00 +9°C° 0 mm 1 mps 741 mmHg 70%
    01:00 +8°C° 0 mm 1 mps 741 mmHg 69%
    02:00 +8°C° 0 mm 1 mps 741 mmHg 68%
    03:00 +8°C° 0 mm 1 mps 741 mmHg 67%
    04:00 +7°C° 0 mm 1 mps 741 mmHg 66%
    05:00 +7°C° 0 mm 1 mps 741 mmHg 64%
    06:00 +7°C° 0 mm 1 mps 741 mmHg 63%
    07:00 +9°C° 0 mm 1 mps 741 mmHg 57%
    08:00 +12°C° 0 mm 1 mps 741 mmHg 50%
    09:00 +15°C° 0 mm 1 mps 741 mmHg 44%
    10:00 +16°C° 0 mm 2 mps 741 mmHg 40%
    11:00 +18°C° 0 mm 3 mps 741 mmHg 36%
    12:00 +20°C° 0 mm 3 mps 740 mmHg 33%
    13:00 +20°C° 0 mm 3 mps 740 mmHg 33%
    14:00 +20°C° 0 mm 4 mps 739 mmHg 33%
    15:00 +20°C° 0 mm 4 mps 739 mmHg 33%
    16:00 +18°C° 0 mm 3 mps 739 mmHg 39%
    17:00 +16°C° 0 mm 3 mps 739 mmHg 45%
    18:00 +14°C° 0 mm 2 mps 739 mmHg 51%
    19:00 +13°C° 0 mm 2 mps 739 mmHg 52%
    20:00 +12°C° 0 mm 2 mps 739 mmHg 52%
    21:00 +10°C° 0 mm 2 mps 740 mmHg 52%
    22:00 +10°C° 0 mm 1 mps 740 mmHg 54%
    23:00 +10°C° 0 mm 1 mps 740 mmHg 55%

    24 March, Sunday

    Time Temperature Precipitation Wind Pressure Humidity
    00:00 +9°C° 0 mm 1 mps 739 mmHg 57%
    01:00 +9°C° 0 mm 1 mps 739 mmHg 58%
    02:00 +9°C° 0 mm 1 mps 739 mmHg 60%
    03:00 +9°C° 0 mm 1 mps 739 mmHg 61%
    04:00 +8°C° 0 mm 1 mps 739 mmHg 62%
    05:00 +8°C° 0 mm 1 mps 739 mmHg 63%
    06:00 +8°C° 0 mm 1 mps 739 mmHg 64%
    07:00 +10°C° 0 mm 1 mps 739 mmHg 60%
    08:00 +13°C° 0 mm 1 mps 739 mmHg 55%
    09:00 +15°C° 0 mm 1 mps 740 mmHg 51%
    10:00 +18°C° 0 mm 1 mps 739 mmHg 48%
    11:00 +18°C° 0 mm 2 mps 739 mmHg 46%
    12:00 +19°C° 0 mm 2 mps 739 mmHg 43%
    13:00 +20°C° 0 mm 2 mps 739 mmHg 42%
    14:00 +21°C° 0 mm 1 mps 739 mmHg 41%
    15:00 +22°C° 0 mm 1 mps 738 mmHg 40%
    16:00 +20°C° 0 mm 1 mps 738 mmHg 46%
    17:00 +18°C° 0 mm 1 mps 738 mmHg 52%
    18:00 +14°C° 0 mm 0 mps 738 mmHg 58%
    19:00 +14°C° 0 mm 1 mps 738 mmHg 62%
    20:00 +13°C° 0 mm 1 mps 739 mmHg 65%
    21:00 +12°C° 0 mm 1 mps 739 mmHg 69%
    22:00 +11°C° 0 mm 1 mps 739 mmHg 71%
    23:00 +10°C° 0 mm 2 mps 739 mmHg 74%
    Show more